| time (UTC) | temp F | wind direction | speed MPH | gust MPH | rain 1hr in | rain 24hr in | rain mn in | humidity % | barometer mb |
| 20260904171504 | 84 | 236 | 1.0 | 0.0 | 0.00 | 0.00 | 0.11 | 82 | 1015.3 |
| 20260904170004 | 83 | 257 | 1.0 | 0.0 | 0.00 | 0.00 | 0.11 | 83 | 1015.7 |
| 20260904164504 | 83 | 235 | 1.0 | 0.0 | 0.00 | 0.00 | 0.11 | 80 | 1015.6 |
| 20260904163003 | 85 | 276 | 4.0 | 0.0 | 0.00 | 0.00 | 0.11 | 76 | 1015.7 |
| 20260904161503 | 88 | 278 | 3.0 | 0.0 | 0.00 | 0.00 | 0.11 | 73 | 1016.2 |
| 20260904160005 | 90 | 262 | 1.0 | 0.0 | 0.00 | 0.00 | 0.11 | 74 | 1016.1 |
| 20260904154600 | 88 | 344 | 1.0 | 0.0 | 0.00 | 0.00 | 0.11 | 76 | 1016.2 |
| 20260904153057 | 85 | 148 | 1.0 | 0.0 | 0.00 | 0.00 | 0.11 | 81 | 1016.0 |
| 20260904151551 | 84 | 169 | 0.0 | 0.0 | 0.00 | 0.00 | 0.11 | 84 | 1016.0 |
| 20260904150048 | 83 | 169 | 0.0 | 0.0 | 0.00 | 0.00 | 0.11 | 87 | 1015.9 |
| 20260904144544 | 81 | 33 | 0.0 | 0.0 | 0.00 | 0.00 | 0.11 | 88 | 1015.6 |
| 20260904143042 | 81 | 33 | 0.0 | 0.0 | 0.00 | 0.00 | 0.11 | 89 | 1015.7 |
| 20260904141541 | 80 | 309 | 1.0 | 0.0 | 0.00 | 0.00 | 0.11 | 91 | 1015.7 |
| 20260904140058 | 80 | 289 | 1.0 | 0.0 | 0.00 | 0.00 | 0.11 | 92 | 1015.6 |
| 20260904134543 | 79 | 319 | 2.0 | 0.0 | 0.00 | 0.00 | 0.11 | 92 | 1015.4 |
| 20260904133040 | 80 | 292 | 1.0 | 0.0 | 0.00 | 0.00 | 0.11 | 93 | 1015.5 |
| 20260904131543 | 80 | 284 | 1.0 | 0.0 | 0.00 | 0.00 | 0.11 | 93 | 1015.3 |
| 20260904130048 | 80 | 273 | 0.0 | 0.0 | 0.00 | 0.00 | 0.11 | 92 | 1015.1 |
| 20260904124537 | 80 | 309 | 2.0 | 0.0 | 0.00 | 0.00 | 0.10 | 90 | 1015.0 |
| 20260904123032 | 80 | 282 | 3.0 | 0.0 | 0.00 | 0.00 | 0.00 | 88 | 1014.9 |
| 20260904121532 | 80 | 267 | 2.0 | 0.0 | 0.00 | 0.00 | 0.00 | 90 | 1014.8 |
| 20260904120031 | 80 | 279 | 2.0 | 0.0 | 0.00 | 0.00 | 0.00 | 93 | 1014.8 |
| 20260904114529 | 79 | 298 | 0.0 | 0.0 | 0.00 | 0.00 | 0.00 | 94 | 1014.6 |
| 20260904113033 | 79 | 298 | 0.0 | 0.0 | 0.00 | 0.00 | 0.00 | 94 | 1014.4 |
| 20260904111537 | 79 | 298 | 0.0 | 0.0 | 0.00 | 0.00 | 0.00 | 94 | 1014.3 |
| 20260904110027 | 79 | 298 | 0.0 | 0.0 | 0.00 | 0.00 | 0.00 | 94 | 1014.2 |
| 20260904104532 | 79 | 298 | 0.0 | 0.0 | 0.00 | 0.00 | 0.00 | 93 | 1013.9 |
| 20260904103027 | 79 | 298 | 0.0 | 0.0 | 0.00 | 0.00 | 0.00 | 94 | 1013.6 |
| 20260904101525 | 79 | 298 | 0.0 | 0.0 | 0.00 | 0.00 | 0.00 | 94 | 1013.6 |
| 20260904100025 | 79 | 298 | 0.0 | 0.0 | 0.00 | 0.00 | 0.00 | 94 | 1013.4 |
| 20260904094524 | 79 | 298 | 0.0 | 0.0 | 0.00 | 0.00 | 0.00 | 94 | 1013.2 |
| 20260904093024 | 79 | 355 | 0.0 | 0.0 | 0.00 | 0.00 | 0.00 | 94 | 1013.2 |
| 20260904091524 | 79 | 355 | 0.0 | 0.0 | 0.00 | 0.00 | 0.00 | 94 | 1013.2 |
| 20260904090030 | 79 | 355 | 0.0 | 0.0 | 0.00 | 0.00 | 0.00 | 93 | 1013.2 |
| 20260904084523 | 79 | 355 | 0.0 | 0.0 | 0.00 | 0.00 | 0.00 | 93 | 1013.1 |
| 20260904083022 | 79 | 355 | 0.0 | 0.0 | 0.00 | 0.00 | 0.00 | 93 | 1013.1 |
| 20260904081521 | 79 | 355 | 0.0 | 0.0 | 0.00 | 0.00 | 0.00 | 93 | 1013.1 |
| 20260904080020 | 79 | 355 | 0.0 | 0.0 | 0.00 | 0.00 | 0.00 | 92 | 1013.0 |
| 20260904074523 | 80 | 355 | 0.0 | 0.0 | 0.00 | 0.00 | 0.00 | 92 | 1012.9 |
| 20260904073018 | 80 | 355 | 0.0 | 0.0 | 0.00 | 0.00 | 0.00 | 91 | 1012.9 |
| 20260904071517 | 80 | 355 | 0.0 | 0.0 | 0.00 | 0.00 | 0.00 | 91 | 1013.1 |
| 20260904070016 | 80 | 355 | 0.0 | 0.0 | 0.00 | 0.00 | 0.00 | 91 | 1013.1 |
| 20260904064514 | 80 | 355 | 0.0 | 0.0 | 0.00 | 0.00 | 0.00 | 90 | 1013.1 |
| 20260904063013 | 81 | 355 | 0.0 | 0.0 | 0.00 | 0.00 | 0.00 | 89 | 1013.2 |
| 20260904061520 | 80 | 355 | 0.0 | 0.0 | 0.00 | 0.00 | 0.00 | 89 | 1013.2 |
| 20260904060011 | 81 | 294 | 0.0 | 0.0 | 0.00 | 0.00 | 0.00 | 91 | 1013.4 |
| 20260904054513 | 80 | 294 | 0.0 | 0.0 | 0.00 | 0.00 | 0.00 | 91 | 1013.6 |
| 20260904053007 | 80 | 294 | 0.0 | 0.0 | 0.00 | 0.00 | 0.00 | 90 | 1013.7 |
| 20260904051506 | 80 | 294 | 0.0 | 0.0 | 0.00 | 0.00 | 0.00 | 90 | 1013.8 |
| 20260904050004 | 80 | 294 | 0.0 | 0.0 | 0.00 | 0.00 | 0.00 | 89 | 1013.9 |
| 20260904044503 | 80 | 294 | 0.0 | 0.0 | 0.00 | 0.00 | 0.00 | 89 | 1014.0 |
| 20260904043003 | 81 | 294 | 0.0 | 0.0 | 0.00 | 0.00 | 0.00 | 89 | 1014.1 |
| 20260904041503 | 81 | 294 | 0.0 | 0.0 | 0.00 | 0.00 | 0.00 | 88 | 1014.1 |
| 20260904040100 | 81 | 294 | 0.0 | 0.0 | 0.00 | 0.00 | 0.00 | 88 | 1014.2 |
| 20260904034558 | 81 | 294 | 0.0 | 0.0 | 0.00 | 0.00 | 0.00 | 87 | 1014.3 |
| 20260904033059 | 81 | 294 | 0.0 | 0.0 | 0.00 | 0.00 | 0.06 | 87 | 1014.4 |
| 20260904031600 | 82 | 292 | 0.0 | 0.0 | 0.00 | 0.00 | 0.06 | 86 | 1014.4 |
| 20260904030058 | 82 | 292 | 0.0 | 0.0 | 0.00 | 0.00 | 0.06 | 84 | 1014.3 |
| 20260904024556 | 82 | 32 | 0.0 | 0.0 | 0.00 | 0.00 | 0.06 | 84 | 1014.4 |
| 20260904023057 | 82 | 305 | 0.0 | 0.0 | 0.00 | 0.00 | 0.06 | 83 | 1014.3 |
| 20260904021555 | 82 | 299 | 0.0 | 0.0 | 0.00 | 0.00 | 0.06 | 83 | 1014.2 |
| 20260904020055 | 83 | 326 | 0.0 | 0.0 | 0.00 | 0.00 | 0.06 | 83 | 1014.3 |
| 20260904014605 | 83 | 286 | 1.0 | 0.0 | 0.00 | 0.00 | 0.06 | 83 | 1014.1 |
| 20260904013054 | 82 | 297 | 1.0 | 0.0 | 0.00 | 0.00 | 0.06 | 84 | 1014.0 |
| 20260904011553 | 82 | 279 | 1.0 | 0.0 | 0.00 | 0.00 | 0.06 | 83 | 1013.8 |
| 20260904010107 | 82 | 288 | 1.0 | 0.0 | 0.00 | 0.00 | 0.06 | 84 | 1013.7 |
| 20260904004554 | 82 | 288 | 1.0 | 0.0 | 0.00 | 0.00 | 0.06 | 86 | 1013.6 |
| 20260904003052 | 82 | 270 | 1.0 | 0.0 | 0.00 | 0.00 | 0.06 | 85 | 1013.7 |
| 20260904001552 | 82 | 309 | 0.0 | 0.0 | 0.00 | 0.00 | 0.06 | 84 | 1013.6 |
| 20260904000056 | 83 | 284 | 0.0 | 0.0 | 0.00 | 0.00 | 0.06 | 84 | 1013.4 |
| 20260903234550 | 83 | 284 | 0.0 | 0.0 | 0.00 | 0.00 | 0.06 | 83 | 1013.4 |
| 20260903233050 | 83 | 284 | 0.0 | 0.0 | 0.00 | 0.00 | 0.06 | 83 | 1013.3 |
| 20260903231550 | 83 | 23 | 1.0 | 0.0 | 0.00 | 0.00 | 0.06 | 83 | 1013.4 |
| 20260903230049 | 84 | 39 | 1.0 | 0.0 | 0.00 | 0.00 | 0.06 | 81 | 1013.4 |
| 20260903224550 | 84 | 34 | 1.0 | 0.0 | 0.00 | 0.00 | 0.06 | 82 | 1013.4 |
| 20260903223051 | 85 | 333 | 4.0 | 0.0 | 0.00 | 0.00 | 0.06 | 80 | 1013.3 |
| 20260903221549 | 85 | 326 | 4.0 | 0.0 | 0.00 | 0.00 | 0.06 | 78 | 1013.0 |
| 20260903220052 | 86 | 336 | 3.0 | 0.0 | 0.00 | 0.00 | 0.06 | 74 | 1012.7 |
| 20260903214550 | 88 | 314 | 1.0 | 0.0 | 0.00 | 0.00 | 0.06 | 72 | 1012.5 |
| 20260903213050 | 88 | 325 | 1.0 | 0.0 | 0.00 | 0.00 | 0.06 | 72 | 1012.6 |
| 20260903211547 | 88 | 344 | 1.0 | 0.0 | 0.00 | 0.00 | 0.06 | 72 | 1012.7 |
| 20260903210104 | 86 | 279 | 1.0 | 0.0 | 0.00 | 0.00 | 0.06 | 79 | 1012.4 |
| 20260903204604 | 84 | 304 | 2.0 | 0.0 | 0.00 | 0.00 | 0.06 | 88 | 1012.4 |
| 20260903203045 | 83 | 287 | 1.0 | 0.0 | 0.00 | 0.00 | 0.06 | 89 | 1012.3 |
| 20260903201545 | 82 | 294 | 0.0 | 0.0 | 0.00 | 0.00 | 0.06 | 90 | 1012.5 |
| 20260903200052 | 82 | 305 | 0.0 | 0.0 | 0.00 | 0.00 | 0.06 | 89 | 1012.7 |
| 20260903194546 | 83 | 265 | 4.0 | 0.0 | 0.00 | 0.00 | 0.06 | 85 | 1012.5 |
| 20260903193043 | 87 | 291 | 5.0 | 0.0 | 0.00 | 0.00 | 0.00 | 78 | 1013.0 |
| 20260903191543 | 89 | 288 | 8.0 | 0.0 | 0.00 | 0.00 | 0.00 | 70 | 1012.6 |
| 20260903190041 | 91 | 288 | 5.0 | 0.0 | 0.00 | 0.00 | 0.00 | 64 | 1012.8 |
| 20260903184544 | 91 | 269 | 3.0 | 0.0 | 0.00 | 0.00 | 0.00 | 69 | 1012.6 |
| 20260903183041 | 94 | 185 | 2.0 | 0.0 | 0.00 | 0.00 | 0.00 | 62 | 1012.9 |
| 20260903181540 | 94 | 310 | 3.0 | 0.0 | 0.00 | 0.00 | 0.00 | 60 | 1013.0 |
| 20260903180040 | 91 | 156 | 5.0 | 0.0 | 0.00 | 0.00 | 0.00 | 67 | 1012.7 |
| 20260903174539 | 91 | 90 | 4.0 | 0.0 | 0.00 | 0.00 | 0.00 | 66 | 1012.9 |
| 20260903173038 | 89 | 50 | 5.0 | 0.0 | 0.00 | 0.00 | 0.00 | 70 | 1013.2 |